Theta_e
349 351 355 357 358 358 358 358 358 358 358 358 357 358 357 358 357 357 357 356 356 356 356 356 356 355 355 355 354 353 353 353 352 352 352 351 351 351 350 350 350 351 351 351 350 350 349 349 349 348 348 349 349 350 351 350 349 348 348 347 346 346 345 345 344 343 344 343 347 347 347 347 346 345 343 342 341 341 340 340 339 335 335 336 338
347 352 354 355 358 358 358 358 358 358 358 357 357 357 357 357 357 357 357 356 356 356 356 355 355 355 354 354 354 353 353 352 352 352 351 350 350 350 350 350 350 350 350 350 349 349 348 348 348 348 348 348 349 350 350 349 348 348 347 346 345 344 344 344 343 343 343 343 344 344 344 345 345 344 343 342 341 340 339 339 339 334 333 338 338
352 353 353 355 357 358 358 358 358 358 358 357 357 357 357 357 357 357 356 356 356 356 355 355 355 354 354 354 354 353 353 352 352 352 351 350 350 350 350 350 350 349 349 350 350 349 348 348 347 347 347 348 348 348 349 350 349 347 346 345 345 345 344 344 343 343 343 343 342 343 344 343 342 341 341 341 340 339 339 339 338 337 334 338 337
350 351 354 355 357 357 357 358 357 358 357 357 357 357 357 357 357 357 356 356 356 356 356 355 355 354 354 353 354 354 353 353 352 352 352 351 350 349 349 350 349 351 351 351 350 350 348 349 347 346 345 347 347 347 348 349 349 347 346 346 345 344 344 343 342 341 341 341 341 340 339 336 338 340 340 342 341 340 339 339 339 338 338 338 337
348 351 354 353 353 356 356 357 357 358 357 356 356 356 357 357 357 357 356 356 356 356 356 355 355 354 354 353 354 353 353 353 353 352 352 351 350 349 349 350 351 350 350 351 351 350 349 349 348 346 344 344 346 347 347 347 347 347 346 346 345 344 343 341 341 341 340 340 340 339 334 334 334 339 340 340 339 339 338 337 337 338 338 338 338
349 351 352 352 353 355 356 357 357 357 357 357 357 357 357 357 357 356 354 355 355 355 355 355 354 354 354 354 354 353 353 353 353 352 352 352 351 350 350 350 349 349 349 350 350 349 349 348 348 346 344 343 343 345 346 347 347 347 347 346 345 343 341 341 341 341 341 341 340 334 334 334 334 336 340 340 340 339 339 338 338 337 337 338 337
349 350 352 354 355 354 356 356 356 357 356 356 356 357 356 356 357 356 354 355 355 355 355 356 355 354 354 354 354 353 353 353 353 352 351 351 351 351 350 349 349 349 348 350 349 349 348 348 347 346 344 343 343 343 345 346 346 346 346 346 346 343 342 341 341 341 341 337 332 332 332 334 335 336 340 339 339 338 338 338 338 337 337 337 337
350 351 352 353 353 355 356 356 356 356 356 356 356 356 356 355 356 356 355 355 355 355 355 355 355 354 354 354 354 353 353 352 352 352 351 350 350 350 350 350 349 348 348 348 348 347 347 346 347 346 345 344 343 343 344 344 345 345 345 345 346 345 344 344 341 341 340 334 332 333 333 334 334 336 340 341 340 340 340 339 338 338 337 337 336
348 350 351 351 351 355 356 355 355 356 356 356 356 356 356 355 354 355 355 355 355 355 355 355 355 354 354 354 353 353 352 352 351 351 350 349 349 350 350 350 350 350 350 349 348 347 347 347 347 346 345 343 342 342 343 343 344 345 344 343 343 343 344 345 345 340 336 334 334 334 335 335 335 334 339 341 341 340 339 337 337 337 337 336 336
348 349 349 350 352 355 355 355 355 355 356 355 355 355 355 354 354 352 354 354 355 355 355 355 355 355 354 353 353 352 352 351 351 351 350 350 350 350 351 351 350 350 350 349 348 347 347 345 346 345 345 343 342 341 342 343 343 343 342 343 342 341 341 343 343 341 333 334 334 334 336 340 335 336 339 339 338 338 335 337 338 335 335 336 336
347 348 350 351 353 354 354 354 355 355 355 355 354 353 353 353 354 349 349 353 355 355 354 354 354 354 353 353 352 350 352 351 351 351 351 351 351 351 351 349 347 349 348 347 348 347 346 346 346 346 345 344 343 343 343 343 342 342 342 341 340 341 340 341 341 336 334 334 335 336 340 342 333 334 340 340 340 339 337 335 336 335 335 335 335
345 346 347 349 354 353 353 353 355 355 355 355 354 353 352 352 352 349 348 351 351 354 354 354 353 354 353 352 351 351 350 351 351 351 351 351 352 352 352 350 349 347 347 348 348 348 347 346 347 346 346 344 344 343 343 342 342 341 340 342 341 341 341 341 335 334 334 335 336 336 336 335 334 337 340 340 340 337 336 336 336 335 335 335 335
344 345 345 348 350 352 351 352 353 355 355 354 354 353 352 351 351 350 347 348 351 353 353 353 353 353 352 352 351 350 350 351 351 351 351 351 352 352 351 350 350 349 347 347 347 346 347 346 347 347 346 345 344 344 343 343 342 341 340 342 342 342 340 340 334 334 334 335 335 335 333 332 334 340 340 340 339 338 337 337 337 336 335 335 334
344 344 345 346 348 352 350 351 351 353 354 354 353 352 352 352 351 351 349 349 350 351 353 353 353 352 352 351 351 352 352 352 351 351 351 352 351 351 350 350 349 347 346 346 346 347 346 345 346 346 346 345 344 343 343 342 341 340 340 340 342 342 340 337 337 332 334 334 334 334 333 333 334 340 340 339 339 338 338 337 337 336 335 334 333
342 342 343 346 347 348 352 351 351 351 351 352 352 352 351 350 350 349 349 349 351 350 353 353 352 353 353 352 352 352 352 351 351 351 351 352 351 350 349 349 348 348 347 346 346 346 345 345 346 345 346 345 344 343 342 341 340 341 341 341 340 340 341 334 332 332 333 335 336 336 334 334 341 340 340 340 339 338 337 336 334 334 334 333 333
342 342 344 343 344 346 349 351 350 350 351 351 351 351 351 350 350 349 350 350 350 349 352 352 353 352 352 352 352 352 352 351 350 351 351 351 350 350 349 349 348 348 347 346 345 345 345 344 345 345 344 344 343 342 341 341 341 341 339 340 340 340 342 340 331 332 333 334 335 336 334 336 342 340 339 340 338 337 335 334 334 333 334 333 333
343 343 342 342 341 342 346 347 349 351 350 350 351 351 350 350 350 350 350 351 351 352 352 352 352 352 351 351 351 351 351 350 350 350 351 350 350 349 349 349 349 348 347 346 345 345 344 345 345 344 343 343 342 342 342 340 340 338 338 339 341 342 341 337 332 332 332 335 336 335 335 336 340 340 339 338 337 336 336 335 335 333 332 332 332
342 342 341 341 340 340 342 345 346 346 347 350 351 350 350 349 350 350 350 348 350 351 351 350 351 351 351 351 351 351 350 350 350 350 350 349 349 349 348 349 348 348 347 346 345 345 344 344 345 344 343 343 342 341 341 339 340 339 339 340 342 342 340 338 332 332 333 338 335 337 335 339 341 339 338 338 337 336 335 335 333 332 332 332 331
341 341 341 341 340 339 340 341 342 343 343 344 347 350 350 350 349 349 351 347 346 346 350 350 351 351 351 351 351 351 351 350 349 350 349 347 348 349 348 348 347 347 347 346 345 345 344 343 344 344 343 342 341 341 340 340 339 340 340 341 342 338 339 336 332 332 335 334 334 334 333 341 341 340 338 338 336 335 334 333 332 332 331 331 331
338 339 340 341 340 339 339 340 341 341 342 343 345 347 350 349 349 346 347 346 346 345 343 350 351 351 351 350 350 350 350 349 350 348 349 347 347 346 347 347 347 347 346 346 345 345 344 344 343 343 343 342 342 340 340 341 341 341 340 341 339 336 329 330 331 332 332 333 335 333 340 342 341 338 339 337 335 334 333 333 333 332 331 331 331
335 336 338 340 341 341 341 341 341 342 342 343 344 346 349 349 349 347 346 344 345 347 345 345 351 351 350 349 346 345 344 345 345 344 348 345 345 346 347 347 346 346 346 346 345 344 344 344 343 343 342 342 341 340 340 341 340 341 340 341 337 329 329 329 329 331 332 334 336 334 342 341 339 339 339 337 334 334 333 332 332 332 332 331 331
322 327 334 339 340 341 342 342 342 343 343 344 346 348 348 347 344 345 345 343 344 346 344 343 348 346 349 347 343 345 342 341 342 348 342 345 346 346 346 347 346 346 346 345 345 344 344 344 343 343 342 341 341 332 333 338 340 340 341 340 331 329 329 329 329 330 332 333 334 338 342 341 340 340 339 336 334 333 333 332 332 331 331 330 330
313 316 322 334 336 339 342 343 343 343 343 343 345 346 345 344 344 344 346 346 346 346 342 344 344 344 344 343 344 343 342 342 342 344 344 346 345 346 346 346 346 345 343 345 344 344 344 344 342 342 341 341 334 329 328 329 328 337 337 330 328 328 329 327 328 330 331 332 332 341 341 341 340 340 338 336 335 334 334 332 331 330 331 330 330
312 314 319 327 335 337 340 342 342 342 341 342 343 342 340 341 341 343 343 343 343 345 341 342 343 343 343 341 340 342 342 340 349 348 348 343 344 345 346 346 346 345 345 344 344 343 343 343 342 342 341 338 327 328 328 328 327 327 328 325 328 329 327 327 327 329 330 336 334 342 341 342 341 340 338 336 335 335 334 332 331 330 330 330 329
312 314 318 322 326 334 338 340 341 341 341 342 340 338 338 338 338 338 338 338 337 336 335 336 337 339 339 338 339 339 338 337 337 337 336 339 340 342 342 341 340 340 343 336 337 340 339 335 334 335 328 329 329 328 326 326 327 327 328 327 328 327 328 327 326 327 330 333 333 342 341 341 340 339 338 336 335 336 334 332 331 331 330 330 329
317 310 311 314 319 329 334 337 339 339 339 338 337 341 339 336 336 336 337 337 336 334 334 335 336 337 338 338 337 335 334 334 335 335 334 336 336 336 341 340 338 338 338 335 334 335 332 331 331 330 328 330 331 331 329 328 328 328 328 328 327 328 327 325 326 327 329 330 334 341 341 341 340 339 338 336 336 335 334 333 332 331 331 330 330
308 309 313 317 316 319 329 336 336 337 337 339 337 336 335 335 334 335 335 334 335 333 333 334 335 336 337 338 334 333 332 332 332 333 333 334 333 333 337 340 339 336 336 335 333 333 331 329 327 328 325 326 329 329 328 327 326 329 329 329 326 328 327 325 325 327 328 330 335 340 340 341 341 339 338 337 335 335 335 333 333 332 330 330 330
309 309 311 313 318 319 322 332 335 336 335 336 335 334 334 335 339 339 335 339 335 333 333 333 335 334 336 336 336 333 333 331 331 332 333 333 333 334 335 337 338 337 336 335 333 331 330 328 327 326 327 327 327 327 327 327 328 329 329 327 326 327 327 325 326 327 328 330 333 339 339 340 339 340 338 337 337 335 335 334 333 332 330 330 329
308 308 309 314 318 320 319 323 332 335 334 335 334 333 334 334 333 334 333 339 331 333 334 333 333 334 334 336 336 333 332 332 331 332 332 332 333 334 334 335 336 336 336 332 332 330 330 329 328 327 325 326 326 326 326 327 328 328 328 327 327 327 326 325 326 326 328 329 331 336 339 338 338 338 338 337 337 336 335 335 334 332 331 329 328
310 310 311 311 314 316 316 319 324 332 333 333 332 332 330 330 332 333 334 334 327 330 333 332 331 333 333 335 336 333 332 332 332 332 332 332 333 333 334 335 336 334 335 333 330 330 330 329 329 328 327 326 326 326 326 325 327 328 328 327 327 327 325 325 325 326 328 329 330 333 339 337 336 337 337 337 337 337 336 337 335 333 331 329 329
311 312 313 314 318 315 315 318 325 332 329 330 328 329 329 328 330 331 329 327 328 331 331 331 332 333 333 334 335 334 333 332 332 332 332 333 332 332 333 334 335 335 335 333 334 336 332 329 328 328 327 327 327 326 327 325 326 328 328 328 327 327 326 325 325 326 327 328 329 330 336 339 337 335 336 336 337 337 337 337 336 334 333 332 331
312 311 312 313 314 313 314 316 317 323 323 326 329 327 326 328 329 324 324 325 327 326 330 331 334 331 334 334 334 335 334 332 332 332 332 333 333 332 333 333 334 336 336 335 333 335 334 333 331 330 329 329 328 326 325 324 325 327 327 326 326 327 326 325 325 325 327 328 329 330 332 334 337 335 336 335 336 338 337 337 336 335 334 333 332
310 313 313 313 312 311 314 314 314 314 314 315 320 322 324 327 324 323 325 328 324 324 327 330 329 331 331 332 333 334 334 332 332 333 334 331 334 335 333 333 334 336 336 336 335 333 334 333 331 332 330 330 329 329 325 322 324 325 324 325 325 326 326 326 325 325 326 328 328 329 329 331 331 335 334 336 335 335 337 337 336 336 334 334 333
312 312 313 313 315 317 317 317 317 317 315 315 318 318 319 320 321 322 328 324 323 323 326 326 330 331 333 331 332 333 333 333 332 332 334 333 333 334 334 334 335 336 335 335 334 333 332 332 332 331 332 330 328 329 324 320 322 322 322 323 322 326 325 326 326 326 327 327 328 328 328 328 328 330 331 337 336 334 334 338 337 337 335 334 333
313 311 312 313 314 315 317 315 315 313 315 315 314 314 315 317 314 315 322 322 322 322 322 321 325 327 330 330 331 334 334 333 333 332 332 331 331 333 332 335 336 335 334 334 334 332 332 331 331 330 329 328 328 328 324 321 321 320 321 321 321 322 325 327 326 327 326 326 327 328 328 328 328 328 329 329 335 335 334 335 339 338 336 334 334
312 312 314 313 314 313 314 313 313 313 313 314 313 314 315 316 319 322 319 320 320 319 318 319 323 326 328 326 327 329 333 332 332 331 331 331 331 331 332 334 336 334 333 333 333 332 332 332 333 332 328 328 327 325 323 321 320 320 319 319 320 323 324 326 326 327 327 326 326 327 327 327 327 327 331 328 329 332 334 334 335 338 338 335 334
312 312 312 312 312 316 317 312 312 313 314 314 313 313 314 314 313 314 314 313 313 315 319 322 324 324 324 323 325 330 332 332 332 331 331 331 333 332 332 334 335 334 333 332 332 332 332 333 332 332 331 329 328 326 323 321 320 320 320 319 320 324 324 325 326 327 329 326 325 326 326 326 328 334 329 327 327 328 332 334 335 334 335 335 335
313 312 312 312 312 312 311 312 313 313 313 314 314 314 314 316 315 318 321 315 315 316 319 322 322 321 321 321 325 327 330 332 332 332 330 332 332 331 332 333 334 334 334 333 332 332 332 332 331 334 335 332 329 326 323 321 322 322 321 321 320 320 324 325 327 328 327 327 326 326 326 327 328 328 328 327 327 327 327 332 334 333 335 333 334
312 311 312 312 311 311 314 317 314 313 314 314 317 314 313 311 312 314 314 314 316 316 317 318 318 319 320 321 323 323 325 326 328 329 328 329 329 330 330 332 332 335 332 332 332 333 332 330 330 331 333 334 331 330 328 326 329 329 326 323 320 320 321 324 326 327 326 327 327 329 328 327 327 328 327 326 326 326 326 327 329 330 331 333 333
311 312 312 311 310 312 314 315 313 314 313 314 313 310 309 312 311 311 312 313 314 317 316 315 317 318 320 321 320 319 321 321 321 324 323 325 325 327 328 329 330 331 330 328 328 328 331 330 329 330 329 330 331 332 330 327 325 324 323 325 324 321 320 321 324 325 326 326 326 328 328 329 328 328 327 326 325 325 325 326 328 328 329 332 333
310 312 311 310 311 313 315 314 313 313 314 314 312 307 304 306 307 307 308 311 314 314 315 314 316 317 317 319 319 319 318 319 320 318 319 328 322 323 324 326 327 329 327 328 330 331 331 331 330 328 328 326 328 332 333 328 323 321 319 321 321 322 321 321 321 323 324 325 325 325 326 328 329 328 328 327 326 325 324 325 326 327 327 328 331
310 311 311 310 311 314 314 314 312 314 313 314 314 310 306 304 305 307 309 313 313 312 312 313 315 318 316 316 316 315 315 316 319 318 319 318 318 320 320 320 322 323 324 326 328 328 329 329 330 328 330 328 327 331 334 328 322 319 319 318 318 320 320 320 320 320 322 323 323 323 323 324 328 329 329 328 327 326 325 324 325 327 327 327 328
310 311 311 311 312 314 314 314 313 314 313 314 310 309 310 309 308 308 310 311 312 312 312 316 318 316 314 314 314 314 314 315 315 318 318 318 318 318 319 320 320 323 321 321 322 324 326 327 327 326 327 328 328 331 330 327 322 322 320 318 315 316 315 317 319 319 320 320 320 322 323 323 324 326 327 327 327 326 326 325 325 326 326 327 327
310 310 311 311 314 315 313 314 314 314 315 315 312 309 311 310 310 311 311 311 311 317 313 314 313 314 313 314 313 312 314 313 314 317 316 316 316 318 318 319 319 321 319 320 319 319 320 324 325 325 327 323 325 326 330 328 325 323 316 316 315 314 311 314 315 318 321 320 319 320 321 323 323 323 322 324 326 326 326 325 325 325 326 327 327
310 310 311 312 315 314 314 315 314 314 313 316 312 314 315 312 313 313 314 314 313 309 309 309 311 315 313 311 313 312 313 313 313 315 318 314 314 316 316 316 317 317 318 318 318 319 321 321 322 324 325 322 321 325 327 329 328 328 322 318 314 312 313 314 314 315 317 319 320 320 320 321 321 322 321 322 324 326 326 325 325 326 326 326 327
310 311 312 313 315 314 315 315 313 313 313 313 313 313 312 311 310 309 308 308 308 306 305 307 309 309 309 311 313 312 314 313 312 313 316 317 314 314 315 316 316 317 318 316 316 316 317 319 321 322 322 324 323 321 321 326 329 329 327 324 320 315 315 319 316 310 316 319 320 321 321 320 321 321 321 321 322 322 325 326 325 325 326 326 327
310 312 312 313 316 315 315 315 314 312 314 312 313 314 310 310 310 310 309 310 309 306 305 306 309 309 310 310 311 311 313 312 313 311 312 315 313 313 314 314 315 315 318 315 314 315 317 318 319 319 321 323 322 322 321 321 324 327 329 328 327 325 325 320 315 315 313 314 318 319 320 321 321 321 321 321 321 322 323 325 325 325 325 326 326
310 312 312 313 315 316 316 315 314 313 313 312 312 313 311 310 310 309 311 309 308 307 308 309 308 311 309 310 311 311 313 313 313 312 312 314 313 312 312 312 313 315 317 314 314 314 315 316 317 316 317 320 321 322 322 324 322 322 326 326 327 328 328 326 324 320 316 313 316 319 320 320 320 321 321 321 320 321 321 323 325 325 325 326 326
311 312 313 314 316 317 317 315 314 312 312 313 312 312 313 312 312 312 312 311 308 310 310 312 311 311 308 310 311 311 309 312 313 312 312 312 318 311 309 310 310 312 316 315 313 314 313 313 314 315 315 316 319 320 323 324 325 323 323 322 323 323 325 325 325 325 320 317 316 317 318 320 319 320 320 321 322 321 322 322 324 325 326 325 326
312 314 315 316 316 318 317 315 314 312 312 312 313 312 313 314 311 310 311 310 310 309 309 309 309 308 308 308 308 309 309 309 310 311 311 312 311 312 310 310 309 313 316 311 311 312 313 312 312 314 314 314 316 316 317 320 323 325 324 323 322 322 323 323 323 322 323 322 317 317 317 316 315 317 321 321 321 321 321 322 323 324 325 325 326
313 314 315 316 316 318 317 315 314 312 312 312 312 312 313 313 312 309 310 310 309 310 307 306 307 307 308 307 307 307 309 308 309 310 310 311 310 315 310 310 313 313 312 310 310 310 311 311 311 311 312 312 312 314 315 317 320 322 323 324 323 323 321 320 321 322 320 318 318 318 319 320 319 318 321 322 322 322 321 321 321 323 323 324 325
Wind_Speed
4 5 3 6 5 7 8 9 10 11 12 12 11 10 10 10 10 11 10 12 13 13 13 12 12 13 14 14 14 14 14 14 15 16 14 15 15 15 15 15 15 15 16 17 18 17 17 17 16 16 17 17 17 17 17 18 18 19 19 18 19 20 19 18 18 17 16 16 18 17 17 17 17 17 17 18 18 17 16 16 14 10 7 11 15
9 6 4 4 7 7 9 9 10 10 12 12 12 11 11 10 10 12 11 12 12 13 13 12 12 12 13 13 13 13 13 13 13 14 13 14 15 15 15 15 15 15 16 17 17 17 17 16 15 15 16 17 17 17 17 18 18 19 19 19 19 19 19 19 18 17 14 15 15 16 17 17 16 17 17 17 17 17 16 16 15 7 5 14 15
7 6 4 4 7 7 8 8 8 8 9 11 11 11 11 11 11 11 12 12 12 13 13 12 13 12 12 13 13 13 12 12 12 12 12 13 14 15 14 14 15 15 16 16 16 17 17 16 15 15 15 16 16 16 17 17 18 18 18 19 17 17 19 19 18 17 15 13 12 16 18 18 17 16 15 16 16 16 16 15 14 13 9 15 13
8 4 4 5 8 6 7 8 7 8 9 9 10 11 11 11 11 11 11 12 12 12 11 12 12 13 12 12 12 13 13 12 11 11 12 12 14 15 15 15 15 16 16 16 16 16 17 16 16 15 15 15 15 16 16 16 16 16 17 17 15 17 18 18 18 17 16 15 14 10 5 6 10 15 16 16 17 16 16 15 15 15 15 14 15
6 5 4 3 3 5 7 8 8 8 9 10 10 11 11 11 11 11 11 11 13 12 11 10 12 13 13 13 13 13 13 12 11 12 12 11 12 14 15 15 15 16 17 16 15 15 15 15 15 14 14 14 14 14 15 16 15 14 15 15 14 16 17 18 18 17 17 16 12 7 4 5 7 14 14 15 15 15 15 15 15 14 14 15 14
6 5 4 3 3 4 7 7 8 9 9 11 11 10 11 11 12 11 12 11 12 12 12 11 10 11 13 14 14 13 13 12 11 12 11 10 11 12 14 14 14 14 15 16 15 15 14 15 14 14 14 13 13 13 14 14 13 13 14 13 13 16 16 17 17 16 15 15 10 5 5 5 5 8 15 14 15 15 14 14 14 13 14 14 14
7 4 4 5 4 5 7 7 8 8 9 10 10 9 11 11 11 11 11 12 12 12 12 11 11 11 11 13 14 14 12 12 12 12 11 10 10 10 12 14 14 14 14 14 15 16 14 13 14 13 13 12 12 12 12 12 12 12 12 12 10 14 16 17 16 15 14 7 5 4 3 4 5 6 14 12 13 14 14 14 13 13 13 12 13
5 4 4 5 3 6 8 7 8 8 8 9 10 9 9 11 11 10 10 11 12 12 12 11 11 11 11 12 13 13 13 12 12 12 11 10 9 9 10 12 12 13 13 13 14 14 14 12 12 12 12 11 11 11 11 11 11 10 11 11 11 9 13 15 17 14 12 5 4 4 4 3 3 5 12 13 14 14 14 14 13 13 13 13 12
5 5 5 4 3 9 7 7 7 9 9 9 9 9 9 9 11 11 11 12 12 12 11 12 12 11 11 11 11 13 13 13 13 13 12 11 10 9 10 9 10 10 11 11 12 14 15 11 11 11 11 10 9 9 10 10 10 10 11 11 10 9 8 7 8 11 7 4 5 5 4 3 3 4 11 14 14 14 13 11 10 13 13 13 13
6 6 5 4 5 8 7 7 7 8 8 9 9 10 10 9 9 10 12 13 12 11 11 11 12 11 11 12 11 12 13 13 13 13 13 13 11 10 9 10 10 11 10 10 11 14 16 11 8 10 10 8 7 8 9 10 10 9 9 10 9 7 6 6 3 7 4 5 5 5 5 5 3 5 11 12 11 12 12 11 8 9 9 12 13
7 7 6 5 7 9 8 7 8 9 9 8 8 8 10 10 9 10 9 13 12 12 10 11 11 11 11 12 12 12 13 13 12 12 13 14 13 11 11 11 10 10 10 10 11 15 16 12 9 10 8 7 5 6 8 9 9 8 8 8 8 6 3 4 2 4 5 5 5 5 9 11 3 4 13 13 13 13 12 11 11 12 12 12 12
7 7 5 4 11 10 9 8 8 9 10 9 9 9 7 8 8 12 7 10 12 12 11 10 10 10 12 12 12 12 12 13 13 12 12 12 13 12 12 13 12 10 11 11 13 15 15 12 10 10 8 5 4 5 7 8 7 6 6 6 6 4 3 6 8 6 5 4 4 6 6 7 5 7 14 13 13 12 11 11 11 11 11 12 12
8 6 6 6 7 10 10 10 10 9 10 10 10 10 10 10 9 10 13 9 8 10 12 11 10 10 11 11 12 12 12 11 11 12 12 12 12 13 13 13 13 12 11 11 12 13 14 13 11 9 9 6 3 4 5 6 6 5 4 4 5 6 9 10 7 7 5 4 4 4 5 4 5 11 13 13 12 11 12 12 12 12 11 11 11
9 8 8 6 6 12 11 10 9 9 8 8 8 8 9 9 11 13 12 11 9 10 11 11 11 11 10 10 11 12 11 11 11 12 12 12 13 12 13 14 13 13 11 11 11 12 13 12 11 9 9 7 4 3 4 5 4 3 3 4 6 8 10 6 6 4 5 5 4 4 3 3 4 12 12 12 12 12 11 11 12 12 11 10 10
9 9 7 6 7 7 13 10 8 9 8 8 8 8 8 8 11 12 12 11 10 10 11 11 11 11 11 12 12 12 12 11 11 11 12 12 13 12 13 14 13 14 12 10 10 12 13 10 9 7 7 6 4 3 4 4 3 3 5 7 7 7 6 2 4 3 4 5 4 5 4 3 9 11 12 13 12 12 11 11 10 11 10 10 10
9 9 8 6 5 6 6 11 10 9 9 9 9 9 9 9 11 11 11 11 11 11 11 11 12 12 12 12 12 12 12 11 11 11 11 12 13 13 13 14 14 14 13 11 10 11 12 9 8 6 6 5 4 3 4 4 3 4 5 6 6 4 2 6 5 3 3 4 4 4 3 4 11 11 12 12 12 11 10 10 10 9 10 10 10
9 9 9 7 6 5 5 5 8 12 10 9 9 10 9 10 10 10 11 11 12 12 12 12 12 12 12 12 12 12 12 12 11 11 12 13 13 13 13 14 14 13 13 12 11 10 12 10 8 7 5 3 3 3 4 3 2 3 3 4 5 7 4 12 7 4 4 4 4 3 3 3 10 11 12 11 11 11 11 11 10 9 9 9 10
9 9 8 7 6 5 5 5 6 5 5 8 9 10 9 9 9 10 12 11 12 11 12 12 12 12 12 12 12 11 12 12 12 12 12 12 13 13 13 14 14 13 13 13 11 11 11 10 9 7 5 3 2 2 3 1 1 1 3 4 6 8 9 11 8 6 5 5 4 3 2 7 11 11 11 11 11 11 11 10 10 9 9 8 8
8 8 8 8 7 6 6 5 5 5 5 5 4 8 11 8 8 8 10 10 9 7 12 11 12 12 12 12 11 12 11 12 12 11 11 12 13 14 13 14 13 13 12 13 12 11 11 10 9 6 5 3 1 1 2 1 1 2 3 6 7 7 4 8 7 7 6 5 5 4 3 8 9 10 11 11 10 10 10 10 9 9 8 8 8
6 7 8 8 8 7 6 5 5 5 5 4 5 5 8 10 9 10 8 12 10 11 4 12 12 12 12 12 11 9 9 9 12 10 12 12 12 10 13 14 13 12 12 13 12 11 11 11 9 6 4 3 1 3 2 1 1 3 4 7 8 7 3 5 7 6 5 5 5 5 7 10 9 10 11 10 9 8 9 10 10 9 8 7 7
3 3 5 6 7 8 7 6 6 6 6 5 5 5 6 10 8 13 11 13 9 9 11 7 11 10 10 9 9 6 4 4 6 5 11 8 10 13 14 14 13 11 11 12 12 12 11 11 10 8 6 5 4 4 4 2 2 3 4 7 8 5 3 4 5 5 5 5 5 5 9 9 11 11 11 9 8 8 8 8 9 8 8 7 7
5 4 3 4 5 6 8 7 6 7 6 5 4 4 5 7 5 5 6 8 8 8 6 5 6 5 8 6 5 5 4 4 5 7 5 6 9 11 13 15 13 12 11 10 11 11 11 11 10 9 8 6 5 2 3 4 5 5 5 7 5 3 3 4 5 5 4 5 5 6 11 10 12 12 11 10 9 8 7 7 8 8 8 7 7
5 4 4 5 5 5 5 6 7 6 6 5 4 5 5 5 5 5 5 6 6 5 5 4 3 4 4 4 4 4 4 4 4 5 5 7 7 10 12 14 13 12 11 10 10 9 10 9 10 8 6 5 1 1 3 3 4 7 6 4 4 1 2 4 4 5 5 5 4 10 12 11 13 12 11 10 10 9 8 8 7 7 7 7 6
5 6 6 4 5 6 6 6 7 7 6 5 4 4 3 4 4 4 4 4 5 4 3 4 3 4 4 4 4 4 4 5 8 11 9 5 6 9 11 13 13 12 12 8 9 9 10 9 8 7 4 2 2 1 2 4 3 3 4 2 4 0 3 5 4 4 5 5 4 11 11 12 13 13 12 11 11 10 9 7 7 6 7 6 6
5 4 5 5 4 5 5 5 5 5 6 5 5 5 4 4 4 5 4 4 3 4 4 3 3 4 4 4 4 4 4 4 4 4 4 4 4 5 6 5 5 5 7 5 5 5 6 3 3 3 3 3 2 3 2 2 3 3 4 3 4 1 3 5 5 5 5 5 5 11 11 11 13 13 12 12 12 11 10 9 8 7 7 6 6
4 7 5 4 3 4 5 5 5 5 5 5 5 5 5 5 5 5 5 4 4 5 4 4 4 4 4 4 5 5 5 4 4 4 4 4 4 3 5 5 4 4 4 5 5 5 5 4 4 4 3 4 4 4 3 3 3 4 5 5 4 3 4 5 5 5 5 5 6 12 12 12 12 13 12 12 12 11 10 8 8 8 7 7 6
6 5 5 5 5 4 5 6 6 5 5 5 5 4 4 5 5 4 6 4 5 5 4 4 4 4 4 4 5 4 5 4 4 4 4 4 4 4 4 5 5 4 4 5 4 5 5 5 4 4 2 3 3 3 3 3 3 4 5 5 2 4 5 6 5 5 5 5 6 13 11 12 12 12 12 12 11 11 11 9 9 8 7 7 7
7 5 6 6 6 5 4 6 6 6 5 5 5 5 4 4 4 5 4 4 5 5 4 4 4 4 3 4 4 5 5 4 4 4 4 3 4 3 3 4 4 4 3 3 4 4 4 5 4 3 3 3 3 3 3 3 4 4 4 5 3 5 5 6 6 4 4 5 6 10 11 12 11 11 13 12 12 11 11 9 8 7 8 7 7
7 5 5 7 5 5 6 6 5 6 5 5 5 4 4 4 4 4 4 3 5 5 5 4 4 3 3 3 4 4 3 4 4 4 3 3 3 3 3 4 3 4 3 3 2 3 3 4 4 4 3 4 4 5 4 4 5 5 5 5 5 4 4 6 6 5 5 5 6 7 12 12 11 11 13 13 12 12 11 11 9 8 7 6 7
5 5 5 4 4 5 6 5 6 6 6 5 4 5 4 4 4 4 4 3 4 5 4 4 3 3 3 3 4 4 4 4 4 3 4 4 3 3 3 3 3 4 5 5 4 4 4 5 4 4 5 5 5 6 5 6 6 6 5 6 5 5 6 7 7 6 6 5 5 5 13 13 12 12 12 14 14 14 13 13 11 9 7 7 7
6 6 5 4 4 6 6 5 5 4 5 5 4 5 4 5 4 4 3 4 4 5 5 4 4 3 3 3 3 3 4 3 4 4 2 3 2 3 3 3 3 3 5 5 2 0 2 5 5 5 5 5 6 6 6 6 6 6 6 7 7 6 6 6 7 6 6 6 5 5 7 14 13 13 13 13 13 14 14 13 12 10 10 10 8
8 5 5 4 6 5 6 5 5 4 4 4 4 4 4 5 4 4 3 2 2 4 5 5 4 4 3 4 3 4 3 3 4 4 3 3 3 2 2 2 1 0 1 3 2 1 1 2 3 4 5 5 6 6 6 7 7 8 7 8 7 6 8 8 8 7 6 6 6 6 6 7 12 12 12 12 11 11 13 14 13 12 11 11 10
4 6 5 6 6 5 6 4 5 5 5 5 5 3 3 4 5 4 4 3 3 3 4 4 4 3 3 3 4 4 4 4 3 4 4 4 5 5 5 5 5 4 3 1 1 3 3 2 2 1 2 3 4 5 5 7 7 8 8 8 6 5 7 8 7 7 7 7 7 6 5 5 6 10 11 11 12 11 11 13 14 13 12 11 11
7 4 6 6 4 4 4 3 5 6 6 6 6 4 3 3 3 4 4 4 3 4 3 3 3 4 3 3 3 3 3 3 4 3 3 4 3 3 4 3 4 5 3 2 2 1 5 4 3 1 1 2 4 5 4 6 7 8 8 6 5 7 6 7 8 9 8 8 7 7 7 6 6 5 5 9 10 11 11 11 14 14 12 12 12
7 5 7 5 5 5 4 4 4 5 6 7 6 5 4 4 4 4 5 4 4 3 3 2 2 2 1 1 2 2 3 4 4 3 4 3 1 1 2 2 3 2 3 3 4 4 4 7 3 3 2 2 4 6 6 7 8 8 8 6 6 5 4 6 6 6 8 7 6 7 7 7 6 6 6 6 8 11 12 12 12 14 13 13 12
9 8 6 6 6 5 4 5 4 5 6 5 5 4 4 4 5 5 4 2 1 1 2 3 3 1 1 0 2 2 2 3 4 4 5 4 4 2 2 2 3 2 3 4 4 5 5 6 6 2 2 3 2 6 5 5 5 6 5 6 5 5 6 6 6 7 7 6 7 7 7 7 7 7 7 6 6 7 12 12 13 13 14 14 14
9 9 8 7 6 5 5 5 5 6 5 5 4 3 4 4 4 5 5 4 3 2 4 4 2 2 1 1 2 2 4 4 3 3 2 1 3 3 3 4 4 4 4 3 4 3 3 5 4 2 2 3 2 5 4 3 4 4 3 1 3 5 5 6 6 7 6 7 7 7 7 7 8 8 7 7 7 7 11 14 13 13 14 14 15
9 9 9 10 8 6 6 5 4 4 5 5 4 4 3 3 4 4 4 6 5 5 6 5 3 2 2 4 4 4 3 3 3 2 2 2 2 2 2 3 3 4 6 5 4 2 3 3 4 3 3 1 0 3 3 3 4 4 3 3 3 3 5 6 7 6 7 7 7 7 8 8 7 8 7 7 7 7 7 10 14 13 14 14 14
8 9 8 8 7 7 5 5 5 4 4 3 3 3 3 3 4 5 5 5 6 5 5 5 3 3 4 4 4 5 4 3 2 2 3 1 2 2 2 1 1 3 2 2 4 4 3 3 5 5 2 1 1 3 1 1 1 1 0 2 1 4 5 4 5 6 8 9 9 9 7 7 7 7 8 8 7 7 7 7 7 6 8 15 14
8 8 9 9 9 8 6 5 5 5 3 3 3 4 4 4 4 4 5 3 3 5 4 5 4 4 3 4 4 4 3 3 2 2 1 0 1 2 2 2 1 2 1 4 3 2 3 5 5 4 2 3 2 2 2 0 0 0 2 3 2 2 4 5 5 6 6 7 7 7 8 8 7 8 9 8 7 7 8 7 6 7 6 11 15
8 9 9 8 9 10 8 8 7 4 5 4 3 3 4 3 3 3 3 1 3 3 3 3 4 3 4 4 4 4 5 4 3 2 1 1 1 2 2 0 1 2 3 2 5 3 4 4 2 1 1 1 6 3 2 2 2 2 1 2 3 1 3 4 6 6 6 6 6 7 7 7 8 8 9 8 8 8 8 7 7 7 7 6 10
9 9 11 11 8 7 8 9 6 5 5 5 4 3 2 6 5 5 3 2 3 3 2 2 4 3 4 4 4 4 4 4 4 4 4 3 3 3 2 2 1 2 2 2 3 4 3 3 4 3 3 3 4 2 2 0 2 2 2 2 3 4 3 4 6 6 6 5 5 6 6 8 9 9 7 7 8 8 8 7 7 7 7 7 7
13 12 11 9 7 7 7 6 6 6 5 4 4 3 2 2 5 3 5 1 1 0 2 1 2 4 3 3 3 4 4 4 4 4 5 4 4 4 2 2 1 1 1 1 1 0 2 2 2 2 3 1 4 3 2 2 2 0 0 1 2 1 3 1 3 5 6 5 4 5 6 7 9 9 8 8 8 8 7 7 8 8 8 8 7
10 8 8 10 8 8 6 6 6 5 5 4 4 3 4 4 4 6 2 3 3 1 3 2 3 3 3 2 2 4 4 3 4 3 4 4 4 4 5 5 3 1 1 1 1 1 1 1 0 2 1 3 2 4 2 2 3 2 2 3 2 1 3 4 5 5 4 5 6 7 5 7 7 7 6 8 9 8 8 7 9 9 9 9 8
11 11 11 10 9 10 8 8 7 6 5 5 6 6 6 5 5 4 4 5 4 3 3 2 2 2 1 2 1 2 3 3 4 3 3 4 4 4 4 3 3 3 3 4 3 2 0 1 1 2 3 3 2 2 2 2 5 3 1 2 1 1 3 2 1 5 3 5 6 7 6 7 6 6 7 8 8 8 8 8 9 8 9 9 8
12 12 11 12 10 9 8 6 6 5 6 7 7 7 7 8 6 6 4 3 3 3 4 5 2 3 3 1 0 1 1 1 3 3 3 3 4 4 4 5 5 5 5 4 4 5 5 4 2 1 2 4 4 2 2 0 2 4 5 7 1 0 0 2 1 4 3 4 5 6 8 7 6 6 6 7 8 8 8 9 8 9 9 9 9
12 10 10 10 9 9 8 7 7 5 6 7 6 6 6 6 7 7 6 7 7 4 2 2 5 2 1 3 2 1 0 1 0 2 3 3 3 4 4 4 4 4 3 5 5 4 5 4 4 5 3 3 2 3 4 4 2 3 5 6 7 7 5 4 2 2 4 4 2 5 6 6 7 6 7 7 7 7 7 8 9 9 9 9 9
12 9 10 9 10 11 10 9 7 6 6 7 6 7 8 6 5 5 5 6 6 6 4 4 3 3 3 3 1 1 1 0 0 0 2 2 3 4 3 3 4 3 3 4 3 3 4 3 3 3 4 5 2 3 3 3 3 2 1 3 4 5 7 8 8 6 3 4 6 3 3 5 4 6 7 7 7 8 8 8 9 9 8 9 9
10 13 13 11 10 10 10 8 8 7 7 8 7 5 7 7 7 6 4 3 4 4 3 3 3 3 4 1 1 1 1 1 1 0 0 1 1 2 3 3 3 3 2 4 3 3 3 4 5 5 5 5 5 4 4 5 5 5 4 3 3 3 4 5 7 7 8 7 9 8 9 3 2 5 6 6 7 7 8 9 10 10 9 9 10
12 11 9 9 9 9 10 10 9 8 8 8 8 7 6 6 6 5 6 5 3 3 3 4 4 3 4 2 1 1 2 0 0 1 0 0 1 2 3 3 2 2 2 2 3 4 4 4 3 3 3 4 4 4 3 4 5 5 4 4 4 3 4 4 5 6 8 9 10 7 5 6 6 4 2 5 6 6 6 7 9 9 9 9 9
8 9 8 9 9 10 11 12 11 9 9 10 9 8 7 7 7 7 7 7 6 6 4 3 3 3 4 4 2 3 1 2 1 0 1 1 1 1 2 1 1 2 3 4 4 3 4 3 3 4 4 5 5 5 4 4 5 5 6 6 6 6 6 6 5 4 5 6 6 8 8 8 9 9 7 5 6 7 7 7 8 9 9 9 9
Wind_Direction
206 181 190 173 154 138 135 141 144 143 142 143 142 140 139 135 128 122 115 112 110 108 104 102 102 105 105 103 103 105 103 104 108 110 112 112 110 107 107 107 105 104 104 105 103 102 102 103 105 107 108 108 110 109 109 109 109 108 106 105 104 103 101 100 97 96 97 98 96 93 89 92 91 88 88 89 87 85 83 81 76 71 66 74 75
171 178 168 174 154 142 142 143 147 148 147 147 146 142 142 138 133 128 121 116 114 113 110 107 105 105 106 105 105 106 107 107 108 110 112 113 112 110 109 109 108 108 109 109 107 106 104 104 105 106 107 109 110 110 109 108 109 110 109 108 107 106 102 99 97 94 94 94 88 88 90 91 89 89 90 90 87 85 84 82 78 72 75 78 75
143 149 156 163 154 147 132 134 138 144 145 145 144 145 144 142 139 131 124 119 116 116 116 113 111 109 109 109 108 108 108 109 111 112 113 113 114 114 113 112 111 111 110 110 110 109 109 108 108 107 107 108 110 111 111 112 112 112 112 109 107 104 102 99 96 97 89 75 81 95 94 91 91 92 95 95 93 90 87 84 83 82 82 80 78
143 145 144 152 152 132 125 125 129 141 142 145 145 149 147 143 141 134 127 122 119 116 116 118 117 116 114 112 110 110 110 112 113 115 116 117 118 119 119 118 116 116 115 112 112 112 113 113 111 109 109 110 112 113 112 115 115 114 111 107 107 106 104 103 101 99 96 90 82 69 75 89 94 95 92 88 91 92 90 88 88 86 84 80 78
133 135 138 137 136 123 117 127 131 138 143 148 150 151 151 147 142 137 131 125 124 123 122 120 122 123 121 118 113 112 112 111 112 114 118 120 119 121 119 118 118 118 117 115 112 113 115 114 112 110 110 113 113 112 114 117 115 111 107 107 109 108 106 105 103 101 99 100 86 53 65 79 85 94 97 98 95 91 89 88 86 83 82 82 81
132 127 118 116 112 121 126 129 131 138 141 151 156 156 153 150 147 141 137 129 126 126 125 122 120 121 123 121 116 113 114 111 107 105 108 113 115 116 116 115 112 111 112 114 112 111 114 114 113 111 110 112 115 115 116 118 113 106 105 109 112 114 111 109 108 107 107 103 88 74 78 88 98 99 100 99 94 91 91 91 87 85 84 83 82
124 118 114 124 121 136 129 126 126 132 141 151 157 157 155 153 148 143 140 134 129 129 127 125 125 123 122 121 118 117 116 112 107 107 105 103 106 109 112 111 110 109 109 109 111 113 115 115 114 114 111 113 116 119 118 114 110 101 101 102 108 121 117 113 112 112 108 90 85 88 72 89 100 105 107 105 103 100 97 91 87 88 89 85 82
111 111 109 121 125 139 122 119 121 122 133 146 155 154 157 154 151 143 139 134 130 129 128 126 126 127 125 122 120 119 119 115 111 108 102 95 92 95 102 111 113 112 111 111 110 113 115 117 115 116 112 113 119 120 118 111 96 82 86 77 71 108 122 107 106 111 111 105 100 87 63 59 89 111 110 105 103 100 96 93 93 92 89 86 80
109 101 103 106 122 127 112 112 118 126 129 143 150 158 156 156 155 149 139 132 131 129 129 129 129 127 124 122 122 121 122 119 115 112 109 104 95 85 87 92 98 103 107 109 109 111 116 125 118 116 114 114 119 119 112 101 86 81 83 82 75 64 35 20 92 112 110 111 107 102 91 66 75 97 106 103 103 97 90 90 95 93 91 89 86
102 98 97 92 98 111 105 113 119 121 122 136 147 159 158 155 155 153 143 138 135 133 132 132 129 126 125 128 130 128 126 120 118 117 115 110 104 97 91 84 89 101 103 105 108 113 117 118 126 117 113 118 117 111 98 89 84 87 88 82 78 65 29 8 70 119 123 126 122 114 114 101 69 97 107 108 109 104 107 100 94 96 93 89 87
107 106 101 96 109 107 110 116 122 118 113 123 139 152 158 157 153 139 157 138 137 135 133 133 131 129 130 132 134 132 126 119 116 117 116 116 113 109 101 100 104 94 107 106 105 112 118 126 122 119 115 117 109 97 92 91 90 89 87 88 80 65 39 316 170 148 141 141 136 134 120 111 82 94 111 110 110 108 105 109 105 97 95 91 88
107 110 115 115 109 98 97 105 118 126 126 127 138 145 149 165 142 140 155 139 145 140 135 133 132 130 133 134 135 132 130 124 121 116 112 111 111 108 105 104 98 102 104 106 107 114 120 126 129 125 121 116 104 93 89 95 96 92 103 105 112 98 18 34 124 144 145 140 130 122 118 117 124 123 117 115 112 110 110 109 105 100 95 90 91
117 111 95 92 104 104 100 95 102 125 132 136 143 148 151 153 158 137 147 156 151 142 137 134 134 132 132 134 134 133 128 122 121 121 117 112 111 110 109 108 106 104 104 110 117 121 125 127 130 132 124 120 95 75 78 83 92 100 99 97 84 69 39 50 111 127 129 126 123 116 114 118 123 126 123 119 119 120 115 110 108 101 99 98 94
119 115 112 113 120 118 103 100 100 110 123 135 133 140 143 144 151 144 143 152 149 143 138 134 134 133 130 131 130 128 124 124 124 124 120 115 113 113 114 112 111 109 113 113 120 124 125 129 133 137 125 125 117 93 75 69 73 84 68 47 63 57 53 50 102 114 130 133 126 116 107 111 118 124 126 126 124 120 114 111 108 108 107 106 98
120 119 119 106 100 119 119 113 107 103 106 114 125 134 138 143 144 144 146 151 147 145 138 134 134 130 128 127 126 126 128 129 130 128 122 115 115 116 116 115 114 113 111 115 121 125 125 128 130 134 120 116 117 109 84 67 59 38 31 26 33 47 68 79 117 119 132 134 126 122 118 122 131 127 128 125 123 121 119 115 112 111 106 98 98
119 119 114 112 114 109 117 125 112 105 102 108 119 130 134 134 140 147 148 151 148 148 139 136 134 130 130 129 131 130 131 133 135 130 120 119 119 119 119 117 115 116 117 120 123 124 125 129 131 130 117 113 110 106 95 77 33 24 21 17 9 14 45 127 118 118 128 125 120 122 134 138 135 133 131 129 129 127 123 119 112 111 114 106 100
123 121 119 120 120 121 115 118 124 117 106 107 118 127 128 134 146 147 146 149 148 145 140 138 134 132 133 133 132 132 134 137 137 135 126 125 123 120 121 120 118 119 121 123 126 127 130 137 134 134 123 113 115 100 87 85 50 14 8 5 5 347 108 130 131 125 125 122 129 131 140 137 138 134 132 134 132 130 130 124 117 114 115 118 111
129 131 130 131 130 128 128 125 117 108 110 112 108 112 121 128 142 147 147 156 148 143 138 137 135 134 134 134 134 135 139 142 141 136 131 128 126 124 126 124 123 126 127 128 131 133 138 141 140 141 135 131 140 121 93 92 47 348 351 11 16 13 101 116 126 130 132 139 130 134 127 144 140 139 135 134 135 133 130 129 128 124 113 113 115
134 134 136 138 142 139 136 131 125 115 108 104 111 120 123 127 137 146 151 129 129 152 141 139 138 138 136 135 138 141 141 142 142 135 131 131 132 129 130 126 128 133 134 132 137 142 143 143 144 140 141 151 218 183 125 14 4 336 341 34 34 34 83 119 129 139 141 136 143 141 158 148 147 145 141 138 142 139 134 129 129 126 124 116 112
138 141 142 148 149 147 147 139 133 128 118 119 117 119 129 127 122 108 131 121 144 143 143 145 144 140 138 139 141 143 141 142 141 136 135 137 137 136 135 128 133 138 139 137 143 147 147 143 144 143 143 157 213 265 225 277 355 339 337 51 46 43 68 121 127 130 136 150 148 156 166 158 157 144 139 139 141 141 140 140 135 125 125 124 121
95 122 137 146 149 149 150 143 148 137 132 127 122 124 125 127 115 128 130 126 135 133 150 164 138 137 135 136 135 131 131 134 132 137 138 140 144 144 139 133 136 139 141 142 144 150 150 148 148 151 157 177 203 242 259 255 310 331 340 54 57 40 68 110 119 132 144 153 153 166 160 157 151 146 143 143 148 145 142 142 136 128 128 133 129
113 116 124 141 145 150 154 149 147 144 141 131 130 127 127 126 121 121 132 144 146 138 143 171 153 132 134 129 129 131 129 132 146 144 138 144 145 148 141 136 139 141 144 144 146 151 154 153 153 159 167 179 205 266 310 331 329 327 327 50 72 38 78 115 131 141 145 152 158 163 153 156 155 149 151 151 150 151 151 155 133 133 133 127 130
103 115 137 139 143 144 141 142 144 143 133 126 131 135 130 130 126 127 136 149 155 148 151 174 137 135 135 132 130 129 135 144 146 146 146 142 144 150 142 138 141 145 143 144 148 151 156 158 161 165 165 171 145 343 323 323 341 336 340 52 72 63 88 121 139 153 156 161 161 163 158 161 159 156 155 156 156 154 157 156 147 145 135 134 132
127 126 137 143 140 140 145 143 144 143 129 132 121 110 116 120 124 117 121 122 148 158 144 145 137 137 134 122 127 135 137 153 162 157 145 130 139 146 143 140 142 140 145 148 155 156 161 168 164 155 146 131 145 183 295 306 317 318 322 23 80 263 129 137 152 153 154 164 169 169 164 163 163 162 159 162 162 155 158 153 145 146 146 143 137
144 126 104 130 130 120 126 132 128 129 129 133 128 122 118 102 95 105 99 102 102 80 78 83 103 127 128 126 130 126 124 112 98 84 92 117 121 141 140 134 131 138 143 148 148 157 154 143 135 135 138 162 185 218 225 282 301 295 299 298 109 226 140 139 154 164 171 160 176 175 170 167 169 168 164 167 164 160 165 166 169 161 158 151 153
128 85 90 76 77 114 114 114 107 117 121 127 130 133 119 111 111 115 104 100 99 84 86 98 115 124 117 125 124 128 127 121 116 111 113 131 126 123 134 134 141 155 157 152 152 150 149 152 156 160 183 199 201 218 211 210 253 269 273 268 133 193 153 149 164 179 174 167 182 178 172 169 171 171 169 169 168 167 174 174 165 164 165 160 152
87 93 91 92 79 74 107 111 114 116 114 113 104 102 100 107 116 117 114 121 110 102 100 114 118 118 123 134 131 130 128 133 137 127 125 143 148 138 130 135 149 164 181 164 161 160 159 154 155 180 192 225 229 231 234 214 217 239 254 262 164 163 155 157 175 184 180 176 185 180 178 177 176 179 175 175 174 174 173 178 171 171 173 169 163
94 96 89 95 88 81 95 113 123 121 118 116 114 111 112 115 118 107 102 131 112 110 126 136 128 115 130 137 135 137 139 142 149 145 142 138 159 157 137 137 153 168 179 202 159 160 160 154 160 179 190 222 251 253 253 236 224 224 245 256 241 148 164 164 177 188 191 183 182 185 184 181 181 179 183 180 177 179 180 184 188 187 182 178 174
99 94 98 87 87 99 91 108 124 124 122 122 118 114 112 113 103 108 117 118 101 114 131 140 130 129 131 135 133 132 136 149 159 154 137 142 148 163 160 157 129 155 166 215 166 154 163 166 175 178 187 214 229 247 245 250 245 235 222 237 231 160 162 162 170 177 193 190 190 189 184 184 177 183 183 185 185 184 185 182 193 185 193 190 181
123 113 86 81 88 84 80 105 135 132 136 127 132 124 128 118 124 132 137 108 105 116 127 131 140 144 147 143 144 144 158 157 153 140 147 161 170 171 162 142 123 158 174 195 200 166 175 174 188 185 188 208 223 234 229 243 242 237 233 231 228 162 164 167 167 186 185 186 191 199 192 185 187 185 189 189 191 190 187 186 187 193 194 189 182
105 91 92 93 85 73 67 75 109 128 130 129 135 133 133 131 140 135 130 144 144 128 128 134 149 160 155 152 146 150 145 138 136 142 145 155 158 181 178 163 180 170 183 186 143 144 185 183 189 194 192 201 220 221 220 233 236 239 229 228 232 151 162 177 168 180 181 178 189 207 203 194 191 194 192 196 193 193 190 189 192 199 185 187 187
100 106 112 114 80 80 71 66 82 102 109 116 121 131 142 147 138 133 156 188 159 127 139 147 155 165 163 158 144 141 134 129 136 137 139 154 154 162 176 188 232 309 206 177 153 115 11 242 193 186 195 204 217 210 216 225 224 225 218 222 231 167 167 171 173 182 181 180 187 196 203 201 200 200 198 199 197 197 195 191 194 197 194 194 189
107 122 121 92 94 88 81 66 83 89 104 122 139 149 147 137 139 147 169 182 198 147 138 155 157 172 175 158 153 146 140 138 132 129 144 167 171 171 183 196 191 199 184 174 41 26 337 324 275 246 186 208 233 229 207 217 216 214 212 216 204 201 160 166 175 172 182 185 187 191 196 203 205 203 208 201 203 203 201 194 194 198 202 195 197
127 121 102 97 98 89 97 81 79 92 101 115 123 131 146 150 148 159 169 179 188 163 162 175 169 171 177 174 144 128 126 128 133 122 163 189 178 166 160 188 193 197 176 150 204 67 308 292 283 303 260 221 254 263 225 211 216 211 207 205 196 204 171 169 171 182 180 185 186 183 189 198 200 203 204 216 208 208 205 203 197 205 207 203 201
120 119 120 133 104 108 106 87 92 89 94 103 117 132 151 151 149 158 178 182 181 181 151 178 167 177 133 116 121 132 126 132 124 167 194 144 111 161 148 126 153 163 169 177 174 201 214 273 279 285 270 236 255 252 210 200 199 201 205 197 198 213 188 167 184 171 181 186 180 186 186 188 195 197 204 202 213 208 207 210 203 201 206 206 202
138 139 131 124 115 114 105 111 100 103 110 117 125 134 136 124 101 114 151 146 110 188 126 160 177 135 58 63 112 154 141 123 130 171 219 160 177 188 115 129 136 133 155 172 179 201 203 232 253 240 276 282 280 270 205 209 221 198 195 186 198 197 192 184 172 183 186 174 187 187 186 191 191 198 201 201 204 210 208 208 207 201 197 201 201
143 142 139 132 127 128 118 121 127 125 121 119 119 115 113 105 98 100 118 116 102 96 120 144 124 106 77 54 68 121 128 128 148 173 216 155 126 138 155 166 165 169 199 208 211 204 198 231 251 224 214 252 259 280 275 211 237 246 245 202 217 188 190 201 176 184 167 182 188 193 191 193 197 200 199 201 203 208 214 209 208 202 197 195 198
150 146 146 140 143 143 141 142 150 143 139 143 139 121 87 75 73 79 78 70 66 78 81 95 103 113 104 82 78 77 101 132 154 177 198 209 132 152 133 153 189 197 210 195 212 200 211 222 254 243 216 188 323 279 266 249 224 236 249 227 223 213 216 201 193 167 171 186 190 191 198 196 195 198 202 205 205 206 209 215 212 206 201 196 198
149 148 144 144 141 147 150 156 153 161 163 117 85 73 72 56 47 63 65 70 73 67 80 81 90 80 67 87 86 84 97 100 129 163 161 174 132 155 155 157 143 188 194 182 171 183 194 196 217 242 279 333 340 319 340 321 138 109 167 265 201 218 220 232 209 191 176 184 188 195 191 199 197 200 201 206 209 203 206 210 210 206 205 199 201
152 153 154 154 152 156 156 162 169 178 134 88 90 84 86 110 101 64 59 53 73 92 80 104 102 83 77 82 75 68 68 82 89 126 104 101 109 129 144 220 99 67 122 222 251 243 205 216 229 221 253 315 345 299 322 141 258 20 276 285 271 213 233 220 225 217 210 185 190 186 193 196 199 202 203 205 206 205 204 206 205 206 203 205 203
157 158 156 163 164 166 159 168 185 163 142 129 120 129 118 92 66 87 126 113 105 81 64 79 89 94 88 87 80 73 64 41 37 29 24 165 127 99 119 205 117 141 200 178 271 258 245 258 263 142 136 293 282 276 274 357 340 311 335 333 322 284 219 218 231 227 226 225 187 182 195 187 200 203 206 204 204 206 204 201 204 202 202 204 208
175 165 166 171 174 169 169 174 168 159 158 158 164 158 173 164 151 175 152 147 113 102 94 70 106 88 87 87 94 95 81 72 40 28 50 51 40 33 37 54 64 166 250 181 202 284 348 329 351 351 124 194 239 210 254 192 318 229 267 318 330 315 274 208 224 243 234 240 229 195 186 194 199 204 205 202 205 206 206 203 201 203 201 201 203
169 172 172 163 167 175 184 174 169 163 169 149 140 173 140 170 127 177 143 110 332 168 142 180 85 87 69 83 86 77 87 74 65 55 45 39 61 70 60 103 67 80 79 17 344 27 204 274 315 303 334 340 311 305 274 199 260 349 91 75 299 294 318 295 247 236 241 235 229 229 204 198 202 200 197 200 205 206 206 202 201 201 201 202 199
166 170 168 171 172 179 186 175 172 171 152 160 162 146 137 139 111 136 129 115 152 71 47 49 65 76 66 42 69 84 78 77 84 73 60 46 50 69 68 57 46 50 90 46 15 358 5 331 186 265 258 273 193 278 271 223 211 141 257 215 226 149 292 272 250 262 223 222 216 234 229 215 202 191 186 201 206 203 205 197 203 202 202 202 199
175 176 175 177 178 180 185 178 172 171 160 154 146 139 116 93 95 72 84 70 44 47 62 38 37 126 94 69 124 108 102 87 81 86 83 71 55 61 77 104 85 45 48 40 18 356 311 243 220 168 200 220 244 266 269 189 238 240 183 345 343 296 233 254 4 285 277 247 235 227 233 235 220 194 184 204 201 202 199 199 202 203 203 202 202
179 183 179 180 173 176 179 177 166 161 155 156 158 145 141 134 126 121 120 115 127 135 162 171 152 144 172 240 329 77 107 85 89 105 83 83 72 66 63 53 41 37 33 30 18 17 16 27 20 239 237 247 252 263 291 353 209 235 215 231 169 154 281 302 19 272 322 238 249 236 230 232 231 215 204 198 194 199 196 202 198 203 201 202 204
188 178 179 180 174 173 176 175 171 167 156 159 161 139 134 141 150 160 161 164 167 217 219 199 159 200 130 137 201 283 196 119 37 86 96 98 91 73 76 68 60 50 40 38 29 20 10 20 8 22 330 287 248 261 277 287 327 244 215 233 245 243 295 323 291 342 299 315 299 250 254 242 235 229 224 215 202 194 199 200 201 202 202 203 203
178 174 181 179 175 176 174 177 172 168 163 158 163 157 146 149 146 153 157 158 174 189 190 176 173 146 130 148 180 258 324 232 117 11 99 91 93 77 77 68 69 50 51 52 36 13 19 15 31 28 17 14 330 278 282 293 276 288 272 256 253 263 243 245 256 271 286 306 305 312 270 254 252 242 231 230 211 201 195 203 204 202 204 205 204
173 181 185 182 176 173 174 172 172 167 166 161 159 167 151 158 159 160 158 185 174 182 169 143 149 142 137 180 210 289 324 312 238 188 127 92 82 101 71 65 63 43 54 38 20 26 33 17 19 22 16 5 15 353 331 311 294 276 285 273 278 267 249 229 247 249 255 259 266 264 280 307 279 266 254 242 226 208 200 202 204 203 204 206 202
186 182 179 174 173 170 174 175 177 173 168 165 160 166 160 149 155 167 171 183 177 162 147 147 157 150 157 192 231 213 257 305 333 257 300 53 100 99 88 77 67 66 71 54 24 18 7 18 27 28 23 8 358 8 344 313 306 298 281 274 276 276 258 231 223 238 252 247 254 253 249 268 290 288 270 258 254 238 217 205 208 209 208 207 204
177 175 176 181 176 174 177 180 182 174 171 167 162 170 169 165 170 172 177 176 178 161 151 170 156 147 163 207 216 225 270 248 279 288 222 133 137 111 116 105 54 26 24 39 41 23 10 12 14 22 20 8 349 348 352 345 333 327 320 305 281 261 265 265 259 236 238 257 266 263 265 263 264 276 273 258 249 239 224 217 213 213 210 209 208